{"data":{"norad_id":50851,"epoch":"2026-05-25T03:41:34.991808Z","epoch_age_seconds":68595,"freshness":"FRESH","line1":"1 50851U 22001BA  26145.15387722 -.00001177  00000+0 -55889-4 0  9993","line2":"2 50851  53.2126 195.7828 0001652  83.7854 276.3326 15.08840629241817","mean_motion":15.08840629,"eccentricity":0.0001652,"inclination_deg":53.2126,"raan_deg":195.7828,"arg_perigee_deg":83.7854,"mean_anomaly_deg":276.3326,"bstar":-5.5889e-5,"rev_number":24181,"period_min":95.437514892105,"perigee_km":538.59863284076,"apogee_km":540.88429988605,"semimajor_km":6917.8784663634,"source":"CELESTRAK","updated_at":"2026-05-25T13:38:16.883969Z"}}